This is the latest recevied weather packets stored in our database for station/object N4AR. If no packets are shown the sender has not sent any weather packets the latest 10 day(s).
| Time | Temp. | Humidity | Pressure | Rain* | Wind** | Luminosity | Snow |
|---|---|---|---|---|---|---|---|
| 1777738771 | 12.78° C | 72% | 1014.2 hPa | 0 mm | - | 166 W/m² | - |
| 1777738467 | 13.33° C | 69% | 1014.2 hPa | 0 mm | - | 184 W/m² | - |
| 1777738165 | 12.78° C | 70% | 1014 hPa | 0 mm | - | 185 W/m² | - |
| 1777737863 | 13.33° C | 74% | 1014 hPa | 0 mm | - | 169 W/m² | - |
| 1777737561 | 13.33° C | 70% | 1014.1 hPa | 0 mm | - | 176 W/m² | - |
| 1777737260 | 13.33° C | 71% | 1014.3 hPa | 0 mm | - | 205 W/m² | - |
| 1777736955 | 13.33° C | 74% | 1014.4 hPa | 0 mm | - | 223 W/m² | - |
| 1777736043 | 12.78° C | 76% | 1014.2 hPa | 0 mm | - | 264 W/m² | - |
| 1777735740 | 12.22° C | 84% | 1014.1 hPa | 0 mm | - | 277 W/m² | - |
| 1777735437 | 12.22° C | 82% | 1014.2 hPa | 0 mm | - | 223 W/m² | - |
| 1777735135 | 12.22° C | 83% | 1014.5 hPa | 0 mm | - | 193 W/m² | - |
| 1777734831 | 11.67° C | 82% | 1014.3 hPa | 1.78 mm | - | 158 W/m² | - |
| 1777734529 | 11.67° C | 84% | 1014.5 hPa | 1.78 mm | - | 144 W/m² | - |
| 1777734225 | 11.67° C | 84% | 1014.5 hPa | 0 mm | - | 125 W/m² | - |
| 1777733922 | 11.67° C | 83% | 1014.4 hPa | 0 mm | - | 114 W/m² | - |
| 1777733618 | 11.67° C | 82% | 1014.5 hPa | 0 mm | - | 101 W/m² | - |
| 1777733315 | 11.67° C | 79% | 1014.4 hPa | 0 mm | - | 92 W/m² | - |
| 1777733012 | 11.67° C | 77% | 1014.5 hPa | 0 mm | - | 94 W/m² | - |
| 1777732708 | 12.22° C | 74% | 1014.3 hPa | 0 mm | - | 70 W/m² | - |
| 1777732405 | 12.78° C | 72% | 1014.1 hPa | 0 mm | - | 71 W/m² | - |
| 1777732103 | 12.78° C | 69% | 1014.1 hPa | 0 mm | - | 56 W/m² | - |
| 1777731800 | 12.78° C | 66% | 1013.9 hPa | 0 mm | - | 82 W/m² | - |
| 1777731496 | 13.33° C | 65% | 1014 hPa | 0 mm | - | 74 W/m² | - |
| 1777731195 | 13.33° C | 64% | 1014 hPa | 0 mm | - | 78 W/m² | - |
| 1777730892 | 13.33° C | 67% | 1013.8 hPa | 0 mm | - | 82 W/m² | - |
* Rain latest hour (hover to see other rain measurements)
** Current wind speed in m/s (hover to see current wind gust speed)